{"data":{"norad_id":65613,"epoch":"2026-09-20T22:00:03.000096Z","epoch_age_seconds":75771,"freshness":"FRESH","line1":"1 65613U 25207X   26263.91670139  .00001293  00000+0  42413-4 0  9994","line2":"2 65613  97.2853 326.4136 0001655  81.5772 138.9170 15.33401885  5797","mean_motion":15.33401885,"eccentricity":0.0001655,"inclination_deg":97.2853,"raan_deg":326.4136,"arg_perigee_deg":81.5772,"mean_anomaly_deg":138.917,"bstar":4.2413e-5,"rev_number":579,"period_min":93.908845038364,"perigee_km":464.53880709017,"apogee_km":466.80410768957,"semimajor_km":6843.8084573899,"source":"CELESTRAK","updated_at":"2026-09-21T09:00:35.657584Z"}}